Weather History for KMIC - December, 2012

Change the Weather History Date:

Saturday, December 15, 2012

  Actual Average Record
Temperature  
Mean Temperature 34 °F -  
Max Temperature 37 °F 28 °F 50 °F (2014)
Min Temperature 32 °F 13 °F -9 °F (2008)
Degree Days  
Heating Degree Days 30    
Moisture  
Dew Point 33 °F    
Average Humidity 92    
Maximum Humidity 100    
Minimum Humidity 70    
Precipitation  
Precipitation 0.27 in - - ()
Sea Level Pressure  
Sea Level Pressure 29.59 in    
Wind  
Wind Speed 6 mph (ENE)    
Max Wind Speed 10 mph    
Max Gust Speed -    
Visibility 3 miles    
Events Rain , Snow    
Averages and records for this station are not official NWS values.
T = Trace of Precipitation, MM = Missing Value Source: NWS Daily Summary

Daily Weather History Graph

Daily Weather History Graph

Search for Another Location

Airport or City:

Trip Planner

Search our weather history database for the weather conditions in past years. The results will help you decide how hot, cold, wet, or windy it might be!

Date:

Astronomy

Dec. 15, 2012 Rise Set
Actual Time 7:45 AM CST 4:32 PM CST
Civil Twilight 7:11 AM CST 5:06 PM CST
Nautical Twilight 6:34 AM CST 5:43 PM CST
Astronomical Twilight 5:58 AM CST 6:19 PM CST
Moon 9:33 AM CST (12/15) 7:43 PM CST (12/15)
Length of Visible Light 9h 54m
Length of Day
8h 46m
Waxing Crescent, 8% of the Moon is Illuminated
Dec 15
Waxing Crescent
Dec 19
First Quarter
Dec 28
Full
Jan 4
Last Quarter
Jan 11
New

Hourly Weather History & Observations

Time (CST) Temp. Windchill Dew Point Humidity Pressure Visibility Wind Dir Wind Speed Gust Speed Precip Events Conditions
12:27 AM 37.4 °F 31.4 °F 28.4 °F 70% 29.77 in 10.0 mi ESE 8.1 mph - N/A   Overcast
12:44 AM 37.4 °F 31.4 °F 28.4 °F 70% 29.76 in 10.0 mi ESE 8.1 mph - N/A   Overcast
12:53 AM 37.9 °F 31.5 °F 28.9 °F 70% 29.78 in 10.0 mi ESE 9.2 mph - N/A   Overcast
1:30 AM 37.4 °F 30.8 °F 28.4 °F 70% 29.73 in 10.0 mi ESE 9.2 mph - 0.00 in Rain Light Rain
1:53 AM 37.9 °F 32.1 °F 28.9 °F 70% 29.74 in 10.0 mi ESE 8.1 mph - 0.00 in   Overcast
2:53 AM 37.0 °F 29.8 °F 30.9 °F 79% 29.75 in 3.0 mi SE 10.4 mph - 0.00 in Rain Light Rain
3:53 AM 36.0 °F 31.1 °F 33.1 °F 89% 29.72 in 6.0 mi East 5.8 mph - 0.00 in   Overcast
4:53 AM 36.0 °F 30.3 °F 33.1 °F 89% 29.70 in 5.0 mi ESE 6.9 mph - 0.02 in Rain Light Rain
5:30 AM 35.6 °F 29.9 °F 33.8 °F 93% 29.65 in 2.5 mi ESE 6.9 mph - 0.04 in Rain Rain
5:53 AM 35.1 °F 30.1 °F 34.0 °F 96% 29.67 in 2.5 mi East 5.8 mph - 0.06 in Rain Light Rain
6:53 AM 36.0 °F 30.3 °F 34.0 °F 93% 29.65 in 2.5 mi East 6.9 mph - 0.01 in Rain Light Rain
8:53 AM 35.1 °F 31.0 °F 34.0 °F 96% 29.62 in 1.5 mi East 4.6 mph - 0.06 in Rain Light Rain
9:24 AM 35.6 °F 31.7 °F 33.8 °F 93% 29.58 in 2.0 mi East 4.6 mph - 0.01 in Rain Light Rain
9:53 AM 36.0 °F 32.1 °F 34.0 °F 93% 29.60 in 2.5 mi East 4.6 mph - 0.03 in Rain Light Rain
10:13 AM 35.6 °F 31.7 °F 33.8 °F 93% 29.57 in 3.0 mi East 4.6 mph - 0.01 in Rain Light Rain
10:53 AM 36.0 °F 31.1 °F 34.0 °F 93% 29.58 in 4.0 mi East 5.8 mph - 0.01 in Rain Light Rain
11:53 AM 36.0 °F 30.3 °F 34.0 °F 93% 29.56 in 4.0 mi ESE 6.9 mph - 0.02 in Rain Light Rain
12:53 PM 36.0 °F 30.3 °F 34.0 °F 93% 29.54 in 4.0 mi ESE 6.9 mph - 0.01 in Rain Light Rain
1:53 PM 36.0 °F 32.1 °F 34.0 °F 93% 29.52 in 4.0 mi ESE 4.6 mph - 0.00 in Rain Light Rain
2:00 PM 35.6 °F 32.8 °F 33.8 °F 93% 29.50 in 1.2 mi ESE 3.5 mph - 0.00 in Rain Light Rain
2:12 PM 35.6 °F 32.8 °F 35.6 °F 100% 29.50 in 1.2 mi East 3.5 mph - 0.00 in Rain Light Rain
2:53 PM 36.0 °F - 35.1 °F 97% 29.51 in 1.5 mi Calm Calm - 0.00 in Rain Light Rain
3:53 PM 36.0 °F - 35.1 °F 97% 29.52 in 1.0 mi Calm Calm - 0.00 in Rain Light Rain
4:10 PM 35.6 °F - 35.6 °F 100% 29.50 in 0.8 mi Calm Calm - 0.00 in Rain Light Rain
4:53 PM 35.1 °F - 35.1 °F 100% 29.54 in 0.8 mi Calm Calm - 0.00 in   Overcast
5:53 PM 35.1 °F - 34.0 °F 96% 29.54 in 0.8 mi Calm Calm - N/A   Overcast
6:53 PM 34.0 °F 29.8 °F 34.0 °F 100% 29.55 in 1.0 mi NNW 4.6 mph - 0.01 in Rain Light Rain
7:49 PM 33.8 °F 30.8 °F 33.8 °F 100% 29.52 in 0.8 mi WNW 3.5 mph - 0.00 in Rain Light Rain
7:53 PM 34.0 °F 29.8 °F 33.1 °F 96% 29.55 in 0.8 mi WNW 4.6 mph - 0.00 in Rain Light Rain
8:06 PM 33.8 °F 29.6 °F 33.8 °F 100% 29.53 in 1.0 mi WNW 4.6 mph - 0.00 in Rain Light Rain
8:53 PM 34.0 °F 28.0 °F 33.1 °F 96% 29.56 in 1.0 mi NW 6.9 mph - 0.01 in   Overcast
9:06 PM 33.8 °F 27.7 °F 33.8 °F 100% 29.53 in 2.5 mi NW 6.9 mph - 0.00 in   Overcast
9:13 PM 33.8 °F 27.7 °F 33.8 °F 100% 29.53 in 4.0 mi WNW 6.9 mph - 0.00 in   Overcast
9:46 PM 33.8 °F 28.6 °F 32.0 °F 93% 29.54 in 2.5 mi WNW 5.8 mph - 0.01 in Snow Light Snow
9:53 PM 32.0 °F 26.4 °F 32.0 °F 100% 29.56 in 2.5 mi WNW 5.8 mph - 0.01 in Snow Light Snow
10:09 PM 32.0 °F 27.5 °F 32.0 °F 100% 29.54 in 1.5 mi WNW 4.6 mph - 0.01 in Snow Light Snow
10:28 PM 32.0 °F 26.4 °F 30.2 °F 93% 29.54 in 2.5 mi WNW 5.8 mph - 0.01 in Snow Light Snow
10:41 PM 32.0 °F 26.4 °F 30.2 °F 93% 29.54 in 3.0 mi WNW 5.8 mph - 0.01 in Snow Light Snow
10:53 PM 32.0 °F 25.6 °F 30.9 °F 96% 29.56 in 3.0 mi NW 6.9 mph - 0.01 in Snow Light Snow
11:53 PM 33.1 °F 26.9 °F 30.9 °F 92% 29.57 in 3.0 mi NW 6.9 mph - 0.01 in Snow Light Snow